Waarnemingen

Advertentie
Mijn weer
Montauban, Frankrijk (7540): temperatuur & dauwpunt: 16.05.2019 19:00:00 - 22.05.2019 19:00:00 (CEST)Montauban, Frankrijk (7540): temperatuur 5cm: 16.05.2019 19:00:00 - 22.05.2019 19:00:00 (CEST)Montauban, Frankrijk (7540): temperatuur -20cm & temperatuur -100cm: 16.05.2019 19:00:00 - 22.05.2019 19:00:00 (CEST)Montauban, Frankrijk (7540): windsnelheid & windstoten: 16.05.2019 19:00:00 - 22.05.2019 19:00:00 (CEST)Montauban, Frankrijk (7540): windrichting: 16.05.2019 19:00:00 - 22.05.2019 19:00:00 (CEST)Montauban, Frankrijk (7540): luchtdruk: 16.05.2019 19:00:00 - 22.05.2019 19:00:00 (CEST)Montauban, Frankrijk (7540): zicht: 16.05.2019 19:00:00 - 22.05.2019 19:00:00 (CEST)Montauban, Frankrijk (7540): Zonneschijnduur: 16.05.2019 19:00:00 - 22.05.2019 19:00:00 (CEST)Montauban, Frankrijk (7540): neerslag: 16.05.2019 19:00:00 - 22.05.2019 19:00:00 (CEST)
Datum & Tijd tt [°C] td [°C] tt 5cm [°C] tt -20cm [°C] tt -100cm [°C] ff [km/u] ff [kn] fx [km/u] fx [kn] dd ppp [hPa] vv [km] sd [min] rr [mm]
22.05.2019 19:00:00 - - - - - - - - - - - - - -
22.05.2019 18:00:00 24,4 8,8 25,0 17,0 15,1 9 5 33 18 N 1017,3 20 51 0,0
22.05.2019 17:00:00 24,9 11,1 25,6 16,8 15,1 8 4 19 11 NW 1017,5 20 56 0,0
22.05.2019 16:00:00 24,0 10,3 25,6 16,5 15,1 11 6 19 10 WNW 1018,0 20 49 0,0
22.05.2019 15:00:00 23,9 10,6 30,0 16,2 15,1 6 3 22 12 NNW 1018,3 20 60 0,0
22.05.2019 14:00:00 22,6 10,1 24,9 16,0 15,0 10 5 18 10 NNW 1018,7 20 56 0,0
22.05.2019 13:00:00 21,7 9,9 27,7 15,9 15,0 8 5 15 8 NW 1019,3 20 60 0,0
22.05.2019 12:00:00 21,2 12,1 27,1 15,9 15,0 4 2 11 6 WNW 1019,5 20 60 0,0
22.05.2019 11:00:00 19,7 12,0 24,3 15,9 15,0 2 1 8 5 OZO 1019,6 20 60 0,0
22.05.2019 10:00:00 17,5 11,3 22,5 16,0 15,0 3 1 6 4 O 1019,9 20 60 0,0
22.05.2019 09:00:00 14,5 11,3 17,1 16,1 15,1 2 1 6 3 ZZO 1020,0 20 60 0,0
22.05.2019 08:00:00 11,9 10,3 8,2 16,2 15,1 0 0 4 2 N 1019,9 20 60 0,0
22.05.2019 07:00:00 8,8 7,9 5,9 16,3 15,1 3 2 6 3 O 1019,7 0,6 7 0,0
22.05.2019 06:00:00 9,4 8,2 5,4 16,4 15,1 0 0 3 2 N 1019,3 20 0 0,0
22.05.2019 05:00:00 9,6 8,2 6,7 16,5 15,1 2 1 8 4 ZO 1019,2 15 0 0,0
22.05.2019 04:00:00 10,4 9,0 6,8 16,6 15,1 0 0 5 3 N 1019,3 20 0 0,0
22.05.2019 03:00:00 10,6 9,2 7,0 16,7 15,1 2 1 5 3 WZW 1019,4 20 0 0,0
22.05.2019 02:00:00 10,9 9,2 7,6 16,8 15,1 2 1 4 2 ZZO 1019,3 20 0 0,0
22.05.2019 01:00:00 12,3 10,2 8,4 16,8 15,1 0 0 4 2 N 1019,2 19 0 0,0
22.05.2019 00:00:00 13,1 10,8 8,9 16,8 15,1 3 1 5 3 W 1019,1 20 0 0,0
21.05.2019 23:00:00 15,2 11,4 10,6 16,8 15,1 0 0 13 7 N 1019,2 20 0 0,0
21.05.2019 22:00:00 17,2 11,7 14,1 16,6 15,1 4 2 9 5 N 1018,8 20 0 0,0
21.05.2019 21:00:00 17,9 11,9 16,7 16,5 15,0 4 2 14 8 ZO 1018,1 20 9 0,0
21.05.2019 20:00:00 18,3 10,6 18,3 16,4 15,1 10 6 27 15 NNO 1017,6 20 33 0,0
21.05.2019 19:00:00 21,0 9,9 23,0 16,2 15,1 12 7 27 15 NNW 1017,1 20 58 0,0
21.05.2019 18:00:00 20,7 10,5 24,6 16,0 15,1 14 8 29 15 NW 1017,1 20 60 0,0
21.05.2019 17:00:00 20,7 11,3 24,0 15,8 15,0 14 8 28 15 W 1017,4 20 58 0,0
21.05.2019 16:00:00 20,4 11,3 22,0 15,6 15,0 15 8 33 18 WNW 1017,7 20 54 0,0
21.05.2019 15:00:00 18,8 11,6 20,2 15,5 15,0 10 5 27 14 WNW 1017,9 20 22 0,0
21.05.2019 14:00:00 18,7 11,0 19,5 15,5 15,1 13 7 24 13 NW 1018,2 20 28 0,0
21.05.2019 13:00:00 17,4 11,0 19,3 15,4 15,0 7 4 18 10 NNW 1018,4 20 17 0,0
21.05.2019 12:00:00 15,4 11,8 16,1 15,5 15,1 9 5 16 9 WNW 1018,8 18 12 0,0
21.05.2019 11:00:00 12,6 11,3 13,5 15,6 15,1 3 2 13 7 N 1019,0 8 0 0,0
21.05.2019 10:00:00 11,4 10,8 11,9 15,6 15,0 9 5 14 8 WNW 1018,6 1,7 0 0,0
21.05.2019 09:00:00 10,7 10,2 11,3 15,7 15,1 9 5 14 8 NW 1018,3 0,7 5 0,0
21.05.2019 08:00:00 10,4 9,8 10,0 15,8 15,1 11 6 16 9 WNW 1017,9 1,0 2 0,0
21.05.2019 07:00:00 10,3 9,7 6,7 15,9 15,1 4 2 8 4 WNW 1017,4 7 0 0,2
21.05.2019 06:00:00 9,7 8,9 5,1 16,0 15,1 3 2 6 3 W 1017,0 12 0 0,0
21.05.2019 05:00:00 10,2 9,1 5,7 16,1 15,0 2 1 7 4 ZW 1016,8 18 0 0,0
21.05.2019 04:00:00 10,9 9,5 6,5 16,2 15,1 2 1 9 5 W 1016,8 20 0 0,0
21.05.2019 03:00:00 11,1 9,7 7,4 16,2 15,1 3 2 8 4 WZW 1016,7 20 0 0,0
21.05.2019 02:00:00 11,4 9,6 6,6 16,4 15,1 4 2 8 4 WZW 1016,7 20 0 0,0
21.05.2019 01:00:00 12,0 9,4 7,8 16,4 15,1 4 2 9 5 W 1016,9 20 0 0,0
21.05.2019 00:00:00 12,7 10,2 9,0 16,4 15,1 4 2 11 6 WNW 1016,6 20 0 0,0
20.05.2019 23:00:00 13,4 10,6 8,9 16,4 15,1 6 3 10 5 WNW 1016,2 20 0 0,0
20.05.2019 22:00:00 14,5 10,7 11,2 16,4 15,1 6 3 14 7 WNW 1015,3 20 0 0,0
20.05.2019 21:00:00 16,0 10,7 14,2 16,3 15,1 10 5 22 12 WNW 1014,8 20 38 0,0
20.05.2019 20:00:00 17,2 11,2 17,2 16,2 15,1 11 6 25 13 NW 1014,5 20 28 0,0
20.05.2019 19:00:00 17,1 10,9 15,1 16,1 15,1 10 5 23 12 NNW 1014,3 20 0 0,0
20.05.2019 18:00:00 15,4 11,6 14,3 16,0 15,1 16 9 35 19 NW 1014,2 20 0 0,2
20.05.2019 17:00:00 19,2 9,1 20,1 15,9 15,1 12 6 29 15 WNW 1013,5 20 35 0,0
20.05.2019 16:00:00 19,6 8,6 18,6 15,7 15,1 16 9 28 15 W 1013,8 20 32 0,0
20.05.2019 15:00:00 17,4 9,0 18,6 15,6 15,1 18 10 43 23 WNW 1014,1 20 28 0,0
20.05.2019 14:00:00 17,1 9,0 16,8 15,5 15,1 13 7 27 15 WNW 1014,3 20 20 0,0
20.05.2019 13:00:00 17,7 10,8 18,6 15,5 15,1 17 9 29 16 W 1014,3 20 47 0,0
20.05.2019 12:00:00 15,5 9,6 17,7 15,5 15,1 14 8 26 14 NW 1014,6 20 29 0,0
20.05.2019 11:00:00 13,7 10,7 13,8 15,5 15,1 9 5 23 13 NW 1015,0 20 2 0,0
20.05.2019 10:00:00 12,9 10,4 12,2 15,6 15,1 13 7 23 13 WNW 1014,8 18 4 0,0
20.05.2019 09:00:00 11,5 9,7 11,1 15,6 15,1 14 8 27 15 W 1014,6 15 0 0,0
20.05.2019 08:00:00 11,1 9,5 10,5 15,7 15,1 13 7 24 13 W 1014,2 14 0 0,0
20.05.2019 07:00:00 10,7 9,5 10,2 15,7 15,1 11 6 23 12 W 1013,8 12 0 0,0
20.05.2019 06:00:00 10,7 9,5 10,2 15,8 15,1 11 6 21 12 W 1013,3 12 0 0,0
20.05.2019 05:00:00 10,9 9,5 10,3 15,9 15,1 12 6 22 12 W 1013,4 13 0 0,0
20.05.2019 04:00:00 10,9 9,3 9,6 15,9 15,1 9 5 21 11 W 1013,4 15 0 0,0
20.05.2019 03:00:00 11,5 9,6 10,5 16,0 15,1 11 6 26 14 W 1013,3 18 0 0,0
20.05.2019 02:00:00 12,0 9,9 11,3 16,0 15,1 12 7 22 12 W 1013,4 20 0 0,0
20.05.2019 01:00:00 12,4 10,5 11,5 16,0 15,1 12 6 23 13 W 1013,6 20 0 0,0
20.05.2019 00:00:00 12,5 10,6 11,3 16,1 15,1 14 8 24 13 W 1013,4 20 0 0,0
19.05.2019 23:00:00 12,6 10,1 11,6 16,1 15,1 11 6 18 10 W 1013,2 20 0 0,0
19.05.2019 22:00:00 12,7 10,4 11,7 16,0 15,1 9 5 18 10 W 1012,5 20 0 0,0
19.05.2019 21:00:00 12,9 10,1 12,2 16,0 15,1 9 5 19 11 WNW 1012,0 20 0 0,0
19.05.2019 20:00:00 13,3 9,5 12,4 16,0 15,1 18 10 41 22 NW 1011,3 20 0 0,0
19.05.2019 19:00:00 15,0 10,0 14,7 15,9 15,1 19 11 32 17 WNW 1010,8 20 0 0,0
19.05.2019 18:00:00 15,5 10,5 15,5 15,9 15,1 14 7 31 17 WNW 1010,5 20 5 0,0
19.05.2019 17:00:00 14,9 10,7 12,3 15,8 15,1 16 8 27 15 WNW 1010,7 20 0 0,8
19.05.2019 16:00:00 13,1 10,6 12,1 15,8 15,1 21 11 41 22 WNW 1011,0 15 0 0,4
19.05.2019 15:00:00 15,1 8,8 14,8 15,7 15,1 13 7 23 12 NW 1010,5 20 0 0,0
19.05.2019 14:00:00 15,0 9,1 14,2 15,7 15,1 13 7 27 15 WNW 1010,4 20 9 0,0
19.05.2019 13:00:00 14,3 8,9 15,8 15,7 15,1 14 8 22 12 W 1010,4 20 9 0,0
19.05.2019 12:00:00 13,4 9,3 14,4 15,7 15,1 11 6 16 9 WNW 1010,6 20 0 0,0
19.05.2019 11:00:00 12,9 9,0 13,9 15,7 15,1 9 5 16 9 W 1010,6 20 0 0,0
19.05.2019 10:00:00 11,6 8,8 12,2 15,7 15,1 8 4 15 8 W 1010,5 20 0 0,0
19.05.2019 09:00:00 10,7 8,3 10,9 15,8 15,1 10 5 16 8 W 1010,5 20 0 0,0
19.05.2019 08:00:00 10,3 7,9 9,4 15,9 15,1 10 5 15 8 W 1010,3 20 0 0,0
19.05.2019 07:00:00 10,1 7,3 9,4 16,0 15,1 5 3 12 6 W 1010,1 20 0 0,0
19.05.2019 06:00:00 10,3 7,5 9,6 16,1 15,1 5 3 11 6 W 1010,0 20 0 0,0
19.05.2019 05:00:00 10,4 7,5 9,6 16,1 15,1 5 3 11 6 W 1009,9 20 0 0,0
19.05.2019 04:00:00 10,4 7,3 9,7 16,1 15,1 6 3 13 7 WNW 1010,0 20 0 0,0
19.05.2019 03:00:00 10,5 7,2 9,8 16,2 15,1 8 4 17 9 W 1010,3 20 0 0,0
19.05.2019 02:00:00 10,7 7,4 9,5 16,3 15,1 7 4 14 8 W 1010,6 20 0 0,0
19.05.2019 01:00:00 11,0 7,9 9,8 16,3 15,1 7 4 16 9 W 1010,8 20 0 0,0
19.05.2019 00:00:00 11,3 8,0 10,1 16,3 15,1 8 4 23 12 WNW 1011,0 20 0 0,0
18.05.2019 23:00:00 11,7 8,2 9,8 16,3 15,1 9 5 21 11 WNW 1011,0 20 0 0,0
18.05.2019 22:00:00 11,8 7,9 10,4 16,4 15,1 13 7 25 13 W 1010,7 20 0 0,0
18.05.2019 21:00:00 12,5 8,4 11,2 16,3 15,1 17 9 40 21 W 1010,1 20 31 0,0
18.05.2019 20:00:00 13,4 7,4 13,1 16,3 15,1 18 10 36 19 WNW 1009,4 20 16 0,0
18.05.2019 19:00:00 14,3 8,0 14,6 16,2 15,1 21 11 39 21 W 1009,0 20 26 0,0
18.05.2019 18:00:00 15,0 7,3 15,9 16,0 15,1 18 10 44 24 WNW 1008,5 20 23 0,0
18.05.2019 17:00:00 16,1 8,1 16,6 16,0 15,1 19 10 37 20 NW 1007,9 20 26 0,0
18.05.2019 16:00:00 16,8 8,2 17,8 15,9 15,1 17 9 32 18 WNW 1007,6 20 18 0,0
18.05.2019 15:00:00 16,0 7,7 17,8 15,8 15,1 13 7 25 13 WNW 1007,9 20 25 0,0
18.05.2019 14:00:00 14,9 7,9 14,9 15,8 15,1 13 7 38 20 W 1008,3 20 2 0,0
18.05.2019 13:00:00 14,5 8,0 15,9 15,8 15,1 16 9 29 16 W 1008,6 20 20 0,0
18.05.2019 12:00:00 13,8 8,6 13,9 15,8 15,1 15 8 30 16 WNW 1008,8 20 3 0,0
18.05.2019 11:00:00 12,5 8,0 13,1 15,9 15,1 18 10 32 18 W 1008,9 20 0 0,0
18.05.2019 10:00:00 12,0 8,3 12,4 15,9 15,1 17 9 32 18 W 1008,7 20 0 0,0
18.05.2019 09:00:00 11,7 9,1 10,9 16,0 15,1 13 7 25 14 W 1008,6 20 0 0,0
18.05.2019 08:00:00 10,9 8,8 10,3 16,1 15,1 13 7 29 15 W 1008,7 20 0 0,0
18.05.2019 07:00:00 10,8 9,2 10,1 16,1 15,1 9 5 19 10 W 1008,2 20 0 0,0
18.05.2019 06:00:00 10,8 9,1 10,1 16,1 15,1 11 6 22 12 W 1007,9 20 0 0,0
18.05.2019 05:00:00 11,0 9,3 10,3 16,2 15,1 10 5 24 13 W 1007,9 20 0 0,0
18.05.2019 04:00:00 11,4 9,8 10,3 16,3 15,1 11 6 29 15 W 1008,0 20 0 0,0
18.05.2019 03:00:00 11,6 10,0 10,7 16,3 15,1 16 9 27 15 W 1008,3 16 0 0,2
18.05.2019 02:00:00 11,7 10,6 10,6 16,4 15,0 12 7 23 13 W 1008,5 15 0 0,4
18.05.2019 01:00:00 11,5 10,2 10,6 16,4 15,1 8 5 22 12 W 1008,4 15 0 0,2
18.05.2019 00:00:00 11,9 10,1 11,0 16,5 15,1 12 6 24 13 W 1008,4 20 0 0,0
17.05.2019 23:00:00 12,1 10,7 11,3 16,5 15,1 14 8 34 18 W 1008,3 16 0 0,6
17.05.2019 22:00:00 12,5 10,9 11,6 16,6 15,1 22 12 35 19 W 1007,5 10 0 0,4
17.05.2019 21:00:00 12,6 10,8 11,7 16,5 15,0 11 6 29 15 W 1006,8 20 0 0,0
17.05.2019 20:00:00 13,3 10,7 12,4 16,6 15,1 13 7 25 14 W 1006,0 20 0 0,2
17.05.2019 19:00:00 13,5 12,1 12,7 16,6 15,0 12 7 28 15 W 1005,8 20 0 0,2
17.05.2019 18:00:00 13,4 12,0 12,5 16,6 15,1 13 7 28 15 W 1006,0 15 0 0,2
17.05.2019 17:00:00 12,4 11,0 11,6 16,6 15,0 14 7 43 23 NW 1006,0 13 0 0,8
17.05.2019 16:00:00 13,4 11,1 13,2 16,6 15,0 9 5 15 8 NW 1005,3 20 0 0,0
17.05.2019 15:00:00 13,2 10,4 14,7 16,6 15,0 6 4 18 10 NNO 1004,6 20 0 0,0
17.05.2019 14:00:00 13,6 10,4 13,5 16,6 15,0 11 6 20 11 O 1003,9 20 0 0,0
17.05.2019 13:00:00 13,1 9,9 12,4 16,7 15,0 10 5 29 15 O 1003,6 12 0 0,0
17.05.2019 12:00:00 13,4 10,4 12,8 16,8 15,0 14 7 27 15 O 1002,9 13 0 0,0
17.05.2019 11:00:00 13,2 11,8 12,4 16,9 15,0 8 5 19 10 NO 1002,7 12 0 0,0
17.05.2019 10:00:00 12,4 11,1 11,4 17,0 15,0 9 5 19 10 NO 1002,8 8 0 1,0
17.05.2019 09:00:00 11,7 10,6 11,0 17,1 15,0 12 7 23 13 NO 1002,6 11 0 4,0
17.05.2019 08:00:00 11,6 10,5 11,0 17,2 15,0 8 4 15 8 NNO 1002,7 7 0 6,0
17.05.2019 07:00:00 11,6 10,0 10,9 17,3 15,0 7 4 18 10 NO 1002,6 8 0 4,1
17.05.2019 06:00:00 12,7 11,4 11,6 17,3 15,0 6 4 11 6 N 1002,8 9 0 2,2
17.05.2019 05:00:00 12,9 10,8 11,7 17,4 15,0 5 3 9 5 ZO 1003,4 20 0 0,0
17.05.2019 04:00:00 13,8 11,1 11,8 17,5 15,0 3 2 16 8 N 1003,4 19 0 0,6
17.05.2019 03:00:00 14,6 9,6 11,8 17,6 15,0 8 5 18 10 ZW 1004,6 20 0 0,0
17.05.2019 02:00:00 15,7 7,7 14,5 17,6 15,0 12 7 27 14 ZZW 1004,9 20 0 0,0
17.05.2019 01:00:00 16,5 6,9 15,0 17,7 15,0 11 6 21 12 ZZW 1005,5 20 0 0,0
17.05.2019 00:00:00 17,2 7,3 15,3 17,7 15,0 11 6 19 10 Z 1005,5 20 0 0,0
16.05.2019 23:00:00 17,7 7,1 12,7 17,7 15,0 14 7 22 12 Z 1006,1 20 0 0,0
16.05.2019 22:00:00 18,6 8,8 13,8 17,6 15,0 0 0 6 4 N 1005,7 20 0 0,0
16.05.2019 21:00:00 21,2 5,1 16,7 17,5 14,9 3 2 8 5 N 1005,3 20 0 0,0
16.05.2019 20:00:00 21,6 4,6 19,9 17,4 15,0 6 3 13 7 ONO 1005,5 20 25 0,0
16.05.2019 19:00:00 22,1 6,3 22,5 17,2 14,9 7 4 14 8 ZO 1005,7 20 44 0,0

tt = temperatuur
td = dauwpunt
tt 5cm = temperatuur 5cm
tt -20cm = temperatuur -20cm
tt -100cm = temperatuur -100cm
ff = windsnelheid
fx = windstoten
dd = windrichting
ppp = luchtdruk
vv = zicht
sd = Zonneschijnduur
rr = neerslag

Weerstations in de omgeving